Track ONEWEB-0358 now! 10-day predictions ONEWEB-0358 is classified as:
1 49284U 21090F 22138.25001157 -.00009332 00000-0 -10070-2 0 9995 2 49284 87.5233 220.6714 0000996 129.6021 59.7726 14.88633934 33522